sat.trackr.live / text

‹ back to catalog

ONEWEB-0626

NORAD 55167 · 2023-004AD

PAYLOAD ACTIVE UNKNOWN

§ Identity

Operator
Country
UK
Launch date
2023-01-10
Launch site
AFETR
Launch vehicle
Mass (kg)
RCS (m²)

Purposes: comms

External: N2YO · Heavens-Above · Gunter

§ Orbital elements

Epoch: 2026-05-25T03:23:11.688864Z

Period
109.29 min
Inclination
87.9150°
Eccentricity
0.0001384
Mean motion
13.17650790 rev/d
Perigee alt
1,192.7 km
Apogee alt
1,194.8 km
Semi-major
7,571.8 km
B*
3.2152e-4
RAAN
10.4574°
Arg perigee
91.2501°
Mean anomaly
268.8789°
Rev number
16,454

§ Raw data

ONEWEB-06261 55167U 23004AD  26145.14110751  .00000138  00000+0  32152-3 0  99982 55167  87.9150  10.4574 0001384  91.2501 268.8789 13.17650790164548

JSON: /api/v1/satellites/55167 · /tle

For live sub-satellite position, see the globe view (requires WebGL).

§ Visibility from observer

Set your observer location to see the next 7 days of passes ≥ 10°. The values pass through the URL so the page stays shareable.

No JS? Fill the form by hand. The geolocation button needs JavaScript.